GFSCGP_con_3kmhel_216.txt.gz
Helicity
57 70 32 12 18 -13 -3 16 21 61 73 107 163 103 82 155 390 406 350 402 532 494 335 210 156 79 66 33 49 49 -4 -6 -0 8 35 30 25 7 23 55 103 141 156 144
62 47 30 12 40 10 17 49 82 52 117 68 53 68 192 446 509 509 409 454 383 398 281 174 105 92 68 52 74 107 69 42 31 29 17 10 6 -11 -11 -5 29 48 72 97
139 57 17 24 62 37 29 103 79 105 19 8 83 184 323 413 407 266 276 506 495 322 209 138 115 89 79 90 86 87 92 73 32 49 15 3 -8 -6 -16 -6 9 28 41 64
75 57 34 49 71 54 -4 130 76 1 4 99 131 118 264 252 239 158 428 373 276 139 101 103 104 90 99 100 57 83 125 96 52 77 53 32 19 15 20 9 7 20 39 35
81 72 65 68 48 41 30 64 64 5 10 106 69 383 388 80 471 595 377 301 238 145 136 79 81 101 105 66 65 71 78 82 87 85 84 67 53 52 37 29 23 24 28 45
64 74 73 74 16 -22 17 59 4 -22 76 152 517 368 375 550 502 232 260 202 101 80 43 35 71 32 42 54 42 62 69 96 92 98 86 101 106 81 54 32 37 25 22 27
80 133 102 110 17 24 130 80 -17 38 166 293 464 373 554 267 114 129 144 121 46 35 48 57 50 34 17 12 15 9 26 46 83 87 93 106 150 137 104 58 60 33 27 31
76 106 110 150 59 69 64 103 99 160 316 382 345 301 335 65 77 7 55 52 52 48 60 53 68 43 40 33 30 37 57 75 70 76 81 95 121 168 174 141 72 54 27 25
87 92 95 169 91 131 166 209 93 218 255 298 403 518 269 79 94 -19 99 64 38 84 63 62 71 54 49 44 51 74 89 97 74 80 73 75 57 82 115 93 83 34 3 -8
102 83 74 86 75 107 126 139 232 204 471 557 595 461 303 208 77 68 6 68 77 63 79 82 58 53 64 59 73 83 93 93 71 57 54 81 45 31 54 71 -11 -7 -30 -27
42 30 98 73 166 209 255 305 359 385 568 578 593 731 283 116 -6 12 82 68 98 42 52 51 45 61 65 74 87 95 105 88 61 66 15 40 59 76 65 -9 -38 -37 -29 -13
115 74 66 17 276 243 354 399 287 496 510 497 428 484 103 46 30 28 46 108 66 64 44 46 59 45 40 67 98 111 108 73 40 37 37 64 82 79 31 -32 -23 2 20 4
106 108 95 153 199 190 374 282 270 259 286 237 370 338 91 72 9 77 111 33 30 44 46 54 64 57 59 82 106 120 112 78 17 -8 10 44 98 83 -37 -21 10 23 28 10
54 74 101 129 128 222 225 195 223 252 297 242 262 247 126 48 28 49 73 38 43 8 55 27 20 28 65 94 115 112 102 93 40 -9 -13 -19 91 -32 -40 -17 -8 -2 -1 -37
130 87 142 157 100 114 34 273 399 384 369 435 326 240 123 13 22 67 41 6 -2 14 29 -18 10 53 82 106 116 110 111 109 82 -40 -56 -68 10 -65 -56 -41 -16 -7 -18 -29
185 121 144 160 162 99 33 436 390 338 299 287 222 159 62 9 8 14 14 5 21 21 -22 -26 41 71 102 126 137 124 118 119 111 -93 -128 -99 -92 -83 -88 -101 -57 -35 -24 18
154 115 147 174 164 -133 158 417 325 213 108 106 159 110 60 45 30 -0 -13 29 -12 -44 5 -4 69 103 135 131 119 72 77 119 -70 -73 3 -7 -63 -101 -113 -87 -73 -26 19 57
103 175 213 190 156 108 244 195 206 148 99 91 153 28 19 55 24 46 44 66 -10 35 27 38 109 141 127 71 54 17 36 -4 -14 12 18 -17 -63 -93 -92 -70 -22 46 88 122
119 168 152 143 198 -1 219 346 158 131 101 167 82 33 50 -7 -37 33 26 18 79 97 98 130 145 97 35 -50 -33 -65 48 22 39 71 73 21 -18 -13 5 38 81 99 123 174
140 60 117 142 250 211 340 110 61 80 131 135 65 90 84 34 26 36 28 71 83 66 147 139 84 44 -58 -137 -71 20 45 46 40 11 46 37 54 64 79 88 128 117 152 230
180 153 129 134 193 129 168 62 60 136 194 115 95 64 57 52 26 65 81 114 126 136 130 97 32 -86 -112 -64 -1 18 48 26 5 20 49 100 84 75 71 114 138 142 204 215
198 215 184 263 185 195 53 68 73 127 143 98 92 92 86 93 110 101 114 121 122 109 16 -44 -76 -82 -10 34 -30 22 21 2 18 46 95 121 97 73 68 152 183 207 111 63
187 202 206 224 190 27 61 32 67 70 85 104 136 155 114 99 107 114 112 113 89 17 5 -57 -101 54 53 52 -10 12 44 56 86 113 140 107 89 84 150 171 180 178 103 135
252 285 218 197 113 56 -5 48 57 46 73 48 35 48 73 89 106 91 95 46 11 -7 -10 -14 83 146 130 72 86 115 138 132 135 155 121 96 97 118 121 133 136 81 161 119
166 199 163 94 43 1 80 77 64 47 65 63 72 69 66 90 107 93 31 -3 -24 5 -18 105 138 152 158 154 191 188 195 196 172 134 107 82 106 113 150 97 115 131 58 79
190 186 174 122 39 64 64 47 44 71 81 74 1 36 119 119 72 35 13 24 51 60 113 128 165 99 230 235 230 210 138 125 95 81 72 81 96 111 93 47 79 11 43 124

GFSCGP_con_3kmhel_222.txt.gz
Helicity
25 99 89 43 33 23 41 72 79 84 87 11 95 153 288 437 585 632 564 513 449 369 175 101 22 -18 -11 -9 -16 29 34 15 77 94 99 62 41 47 50 42 66 47 41 54
46 76 50 43 49 44 45 58 79 12 62 68 170 254 407 496 486 357 335 330 308 267 181 33 6 -9 -29 -32 -23 12 70 99 107 93 84 93 78 68 76 82 49 42 59 64
38 35 52 83 53 42 44 91 102 133 88 133 167 273 407 416 369 368 383 254 183 116 49 -18 -40 -27 -4 -5 -6 22 51 48 42 48 59 85 96 130 133 104 127 91 65 51
55 36 45 74 58 59 60 93 97 72 104 127 250 254 388 398 527 556 474 210 131 64 -5 -2 10 15 -4 -5 3 3 22 30 23 24 31 68 99 106 128 133 98 102 81 61
54 87 110 87 14 33 31 28 70 31 132 255 294 276 295 689 643 663 451 217 116 40 33 56 46 22 20 43 40 46 34 33 26 36 51 87 94 101 130 122 77 54 61 37
44 48 82 73 78 81 79 94 57 166 242 282 236 239 429 620 699 545 258 139 86 79 94 109 126 100 114 84 72 75 57 26 19 26 35 75 82 77 87 71 51 47 55 34
28 62 58 79 72 68 123 32 37 177 251 218 207 299 439 684 461 284 127 16 110 87 46 48 74 91 123 77 93 82 65 36 18 24 49 71 84 88 86 90 61 24 57 79
31 20 68 57 67 87 98 74 158 272 281 286 116 214 474 507 77 -111 -99 33 -17 -36 17 81 89 80 93 119 161 125 60 8 8 58 74 99 98 85 78 94 64 49 81 95
69 66 75 129 115 121 134 160 84 166 261 369 279 408 374 278 117 -38 67 -50 -84 21 73 92 88 38 60 96 115 115 57 42 77 103 116 116 106 77 51 29 57 66 110 114
69 77 115 101 149 194 191 157 229 264 295 394 410 425 440 292 113 37 -10 20 61 85 74 57 39 31 10 45 84 129 112 122 124 136 136 111 126 126 80 65 33 34 86 104
111 153 118 163 204 213 224 177 237 202 271 458 439 556 297 176 112 97 70 38 47 95 82 82 62 67 54 66 95 121 128 121 137 122 132 138 137 136 65 93 67 119 116 -34
117 177 164 152 221 231 254 273 259 277 251 308 413 438 193 105 127 85 79 103 90 130 120 96 80 96 125 45 40 65 102 131 116 119 127 138 137 108 -118 -152 -34 90 -142 -129
93 156 162 181 186 273 280 250 242 239 364 341 458 372 150 101 102 108 127 137 142 128 127 119 97 73 63 47 74 86 100 111 97 100 121 120 -49 -64 -51 -49 -41 -92 -132 -151
124 171 196 224 244 217 271 316 313 285 381 361 263 192 141 113 123 150 123 165 119 113 122 91 72 68 76 72 57 35 23 -5 23 62 -26 -14 -32 -29 -15 -34 -49 -47 -66 -83
130 218 181 133 171 255 284 387 341 275 253 331 166 120 137 145 123 172 197 136 109 121 107 78 43 34 23 1 -51 -55 -44 14 27 6 8 30 27 4 18 41 37 18 18 6
118 185 194 121 133 224 485 430 320 182 123 187 145 120 111 116 120 132 120 101 132 127 95 56 58 42 -5 -31 -47 8 34 64 18 34 28 37 64 43 65 72 105 97 58 26
158 155 172 127 126 222 328 338 220 65 98 134 178 88 117 106 87 154 106 152 201 153 129 106 77 57 35 22 43 67 61 27 45 40 72 47 56 96 117 95 72 32 -18 -17
159 136 149 150 99 321 270 191 103 127 77 194 61 48 113 149 165 201 187 203 173 160 129 107 149 159 81 75 66 7 26 18 20 55 57 76 104 116 93 68 15 -8 -13 32
154 136 138 173 203 250 264 195 151 116 105 143 14 108 82 84 84 190 151 127 169 184 183 197 197 168 158 75 25 53 27 12 22 55 84 103 122 111 61 40 63 134 154 218
202 191 152 208 234 285 270 126 65 124 169 136 93 104 112 22 81 182 114 160 170 161 175 151 127 181 170 158 100 123 77 108 131 133 147 159 132 61 74 119 247 261 238 259
171 174 185 199 224 190 209 78 60 249 178 107 118 120 92 168 192 198 182 164 176 147 125 120 125 112 101 116 85 140 180 199 170 175 189 130 121 114 165 232 311 154 318 312
171 201 193 255 254 271 127 95 203 129 163 121 122 121 97 103 109 133 147 158 144 132 109 117 112 138 140 111 129 166 185 220 239 206 137 145 146 177 210 284 136 204 270 274
171 194 228 241 165 111 82 94 93 108 98 117 133 130 81 76 110 127 146 94 189 129 140 132 121 134 260 194 179 204 217 251 216 146 145 160 159 86 163 102 115 140 218 271
170 187 199 227 163 106 57 61 59 66 90 117 138 107 57 70 99 121 116 112 126 62 101 131 139 173 243 217 258 238 262 188 133 139 120 129 114 96 123 117 134 185 208 214
140 198 190 151 167 35 74 31 40 61 87 109 66 71 55 68 90 109 69 122 46 57 98 86 119 146 197 254 298 300 224 135 132 122 118 108 118 104 106 106 137 156 140 133
152 180 200 138 135 145 110 76 56 63 91 109 28 23 60 53 71 64 81 46 1 50 103 94 112 157 187 252 270 240 189 161 107 93 76 61 121 142 152 145 118 44 80 109

GFSCGP_con_3kmhel_225.txt.gz
Helicity
39 117 83 83 70 52 67 82 94 74 105 23 192 370 460 452 436 562 462 428 406 328 156 18 -2 -19 -37 -20 -25 -30 -39 -12 37 91 103 95 78 85 67 59 47 56 74 67
48 69 35 59 51 59 68 105 111 67 146 131 333 457 430 417 520 509 568 642 515 365 222 106 75 58 29 2 -4 -8 -20 -27 1 42 51 36 45 85 99 101 75 78 74 89
52 37 45 69 44 44 67 84 104 150 153 228 342 392 410 442 552 604 609 455 366 263 168 78 21 31 60 58 59 43 22 31 41 49 55 50 53 96 124 108 98 93 109 89
68 43 86 90 63 54 49 89 140 138 228 230 331 302 559 604 770 660 478 327 224 127 50 32 19 17 25 57 64 72 86 69 67 68 70 60 81 84 101 113 106 98 101 92
37 69 94 94 48 16 55 59 132 132 209 248 316 390 574 621 767 599 425 241 70 -91 -61 -19 10 20 47 53 79 121 111 127 124 104 83 73 73 84 93 93 80 109 123 117
46 63 84 57 54 89 47 111 120 170 189 240 249 328 549 676 481 309 163 -28 -192 -216 -156 -68 34 105 126 109 135 128 102 109 155 133 63 83 107 98 107 110 101 93 116 140
46 82 71 88 79 104 116 31 -4 143 204 280 319 352 603 493 268 156 24 -150 -173 -34 46 59 46 38 70 81 71 73 38 52 105 88 58 96 126 147 164 164 157 125 122 115
65 79 96 76 82 111 118 68 102 221 302 332 171 363 389 240 72 -50 -100 -30 -27 35 46 98 117 118 106 85 54 61 54 78 104 83 65 89 104 147 169 169 158 159 148 112
65 95 117 162 164 121 147 147 48 148 251 416 404 571 244 263 93 42 79 91 82 45 89 127 147 127 105 106 66 85 35 -31 97 136 151 142 129 147 168 146 177 192 163 129
66 61 139 134 173 213 179 91 191 155 327 426 574 555 303 202 117 79 82 85 65 86 142 173 146 137 122 121 113 123 100 114 131 150 165 162 143 151 140 147 168 126 100 95
81 133 149 199 226 197 212 163 172 207 350 528 649 560 183 150 85 113 106 147 155 156 155 157 154 138 137 126 134 145 145 128 123 121 116 92 121 154 141 144 152 115 99 130
87 155 182 233 221 267 231 208 217 346 302 372 524 430 201 94 71 129 167 185 166 162 178 158 153 151 143 134 116 96 78 51 32 41 90 125 117 53 -33 -18 12 -43 73 42
82 144 186 241 214 274 344 252 231 274 350 437 543 444 125 58 99 135 157 197 167 179 155 133 123 121 119 98 61 45 50 72 107 117 101 86 70 55 34 29 17 -5 -2 -24
103 174 223 278 265 293 303 367 282 298 410 436 329 244 106 74 93 145 153 200 189 194 162 161 142 147 158 170 150 151 163 144 140 148 137 103 80 38 43 63 59 70 71 82
136 201 175 218 270 294 403 406 231 282 294 408 258 149 109 125 148 190 237 202 186 163 156 190 169 197 247 137 72 71 95 48 55 70 87 74 76 86 103 94 99 87 85 80
108 164 168 212 246 253 434 315 225 194 234 236 193 139 145 132 145 161 202 160 163 195 176 144 183 192 183 160 117 93 67 49 43 78 123 156 138 144 142 93 59 32 21 19
160 168 188 203 223 322 243 285 255 129 166 195 236 160 116 106 144 192 176 201 231 202 179 181 161 133 167 132 66 91 103 163 186 208 204 147 115 97 61 18 43 50 30 49
177 172 166 220 199 270 252 213 185 140 142 139 160 108 119 165 208 232 216 221 206 193 170 191 142 189 197 152 137 148 196 209 236 216 164 141 87 56 89 59 96 214 207 200
153 151 178 223 255 250 224 237 204 201 95 154 91 64 122 154 157 233 176 181 194 189 192 164 187 233 200 202 148 171 209 241 210 215 165 89 70 73 110 245 259 238 176 266
186 197 185 246 237 225 293 221 119 171 151 168 62 125 150 122 133 224 172 211 191 169 138 117 179 234 197 188 212 215 223 239 201 156 168 189 165 182 236 183 195 200 257 284
195 178 186 192 180 199 232 166 99 307 193 64 117 144 147 186 235 250 221 180 181 149 110 137 190 178 193 212 265 268 238 198 206 223 182 169 188 165 154 137 226 254 260 305
191 214 156 201 211 250 214 194 283 164 138 134 128 143 153 149 177 166 172 163 113 102 119 148 177 221 236 232 261 275 229 226 244 143 184 183 148 53 115 191 260 246 211 250
168 175 194 200 207 192 139 135 105 104 86 109 119 141 127 150 138 156 110 123 73 83 121 112 146 192 246 267 249 227 235 246 171 185 148 97 97 92 129 202 249 244 220 261
138 167 191 201 194 157 107 86 93 79 88 96 121 126 92 115 112 129 74 71 65 88 89 99 184 184 260 252 247 243 217 184 117 119 141 117 99 88 111 173 171 171 190 183
155 191 187 158 147 101 142 85 68 48 62 78 89 97 82 80 109 81 49 36 46 97 64 103 164 181 207 215 237 225 173 145 108 74 128 157 173 151 115 130 187 151 140 143
147 173 190 143 147 160 133 65 53 41 60 82 100 80 66 58 72 29 32 -5 14 66 45 78 87 150 177 204 222 201 150 171 86 110 199 190 197 183 171 154 114 77 75 69

GFSCGP_con_3kmhel_231.txt.gz
Helicity
57 96 82 78 75 71 93 136 156 136 188 164 279 449 491 478 593 550 461 343 264 157 -12 -137 -147 -124 -63 -19 -4 7 20 3 6 29 51 98 116 113 75 60 40 40 56 67
36 56 56 44 55 63 80 140 165 160 217 231 489 534 514 596 547 421 295 198 81 -6 -94 -91 -47 19 -5 -31 -24 4 19 27 39 38 70 63 76 107 121 83 57 51 48 44
48 34 30 43 31 31 61 126 130 168 244 314 457 468 500 471 394 343 195 60 6 -65 -11 88 48 5 29 24 41 46 62 68 66 63 95 78 76 74 80 73 68 76 66 53
59 29 43 42 31 47 70 119 151 171 261 290 327 477 541 488 436 301 183 80 -20 79 23 1 22 49 56 99 99 79 90 77 86 78 85 73 96 92 85 85 81 91 69 66
23 52 62 41 48 54 78 92 170 199 247 405 332 374 527 355 388 342 151 39 42 28 28 44 57 79 86 84 100 107 102 94 85 87 102 104 62 76 83 72 54 45 49 36
37 43 64 66 69 87 63 132 173 200 261 299 384 440 538 420 352 232 70 59 33 40 56 75 91 90 98 115 123 133 125 106 106 91 74 65 60 53 63 52 87 95 85 72
35 71 44 62 46 102 97 35 25 158 245 368 428 312 383 455 274 114 58 38 47 82 105 123 123 129 141 143 133 153 158 174 157 119 79 76 75 67 58 50 91 88 104 98
70 50 74 51 60 95 87 21 97 196 310 417 243 241 373 345 124 35 15 51 73 91 121 146 165 166 147 154 164 148 173 168 127 139 136 120 102 112 85 55 55 80 124 147
74 96 108 135 139 85 117 113 92 167 246 384 322 326 350 274 110 26 47 62 90 121 155 173 163 158 176 201 183 156 117 99 88 60 57 57 56 66 51 56 51 64 51 30
79 84 128 133 143 152 145 61 163 163 257 256 420 161 333 249 77 66 85 142 156 171 161 172 156 174 238 190 155 160 158 153 165 121 86 89 82 56 38 30 44 52 55 51
87 112 123 165 178 140 123 98 135 180 205 286 418 164 239 119 68 131 175 191 180 185 173 188 231 256 216 201 180 202 204 181 193 167 159 139 134 119 71 50 35 40 37 28
97 124 148 157 192 209 153 143 122 210 231 264 336 98 187 73 101 164 197 199 185 175 217 286 263 259 225 207 251 286 299 247 241 218 216 228 197 175 145 114 89 81 90 82
107 133 108 154 160 195 207 149 178 227 222 184 333 288 154 100 139 176 178 184 212 192 288 311 271 239 238 265 276 265 285 233 186 193 191 193 177 152 162 150 148 107 91 111
123 143 136 156 262 210 193 212 220 228 228 287 201 184 126 121 148 211 201 207 211 266 275 245 260 273 255 300 310 294 274 269 278 292 287 271 287 242 181 152 156 135 96 77
139 152 151 215 244 179 187 199 200 199 209 247 169 161 104 185 197 248 206 166 248 277 271 251 297 267 297 297 303 349 354 359 360 357 358 318 299 295 244 202 166 143 123 122
122 164 182 196 157 194 169 134 144 168 214 168 173 155 217 205 207 191 115 200 266 254 271 322 302 338 322 317 331 353 330 360 358 379 389 363 245 189 188 229 234 269 296 209
163 165 177 179 167 196 190 143 94 157 204 155 211 201 165 165 180 159 145 226 224 214 262 305 281 328 327 348 334 295 325 337 324 343 186 128 128 126 151 236 348 295 128 159
183 167 164 173 157 205 189 138 167 131 157 164 161 113 115 193 279 190 137 165 167 171 247 245 258 301 273 334 300 289 300 305 304 224 164 185 136 191 231 300 263 212 170 99
156 163 194 194 209 197 135 181 191 239 176 196 154 70 87 155 240 230 114 132 145 157 227 214 261 274 277 305 291 319 362 366 258 211 205 181 179 214 218 206 156 83 81 167
189 198 179 193 203 221 175 174 214 274 193 220 96 76 86 118 191 278 164 163 181 170 162 186 242 243 272 302 334 416 434 399 360 349 299 256 203 211 208 266 238 164 96 122
186 173 188 186 183 141 161 168 173 287 297 114 94 86 94 190 242 197 188 189 107 165 155 172 226 216 281 300 399 437 425 375 334 283 220 251 245 266 236 203 226 225 250 263
196 203 161 198 187 191 200 209 240 236 169 155 85 93 98 184 192 101 105 118 127 150 179 162 204 222 262 316 405 431 421 388 244 244 232 188 190 195 188 172 182 184 185 208
166 173 186 173 174 158 163 196 200 139 161 140 90 75 100 143 144 86 92 96 124 90 162 167 169 204 262 349 369 422 403 303 162 174 201 217 198 193 201 195 191 200 172 145
181 157 173 159 139 125 152 164 150 124 105 85 78 75 100 129 116 71 52 80 131 85 106 166 164 153 281 391 398 357 312 250 145 157 167 158 136 155 157 199 200 194 197 179
215 219 184 135 97 114 186 137 105 98 85 67 48 72 82 129 112 33 15 39 116 93 68 139 149 135 249 378 362 340 271 209 140 137 137 129 131 115 131 144 151 150 130 144
187 197 210 167 105 148 127 110 85 98 87 53 40 56 76 98 128 40 -15 -3 63 61 64 145 153 124 242 345 355 297 260 209 145 129 142 125 130 123 114 116 134 61 59 55

GFSCGP_con_3kmhel_234.txt.gz
Helicity
71 94 65 59 70 37 41 69 95 133 189 143 276 297 295 396 467 404 325 228 149 59 -31 48 30 15 35 55 49 46 41 39 59 75 78 77 79 80 64 100 89 104 87 61
50 77 55 46 56 36 45 82 104 115 161 141 343 352 340 406 354 259 217 161 78 4 7 68 16 35 45 43 45 50 52 62 82 98 109 114 116 111 101 85 81 91 87 77
95 48 18 33 53 51 50 75 76 109 133 215 251 378 417 349 288 248 182 95 10 54 32 27 33 38 38 40 50 66 73 93 107 100 121 128 130 129 118 103 102 93 87 80
67 45 51 62 63 21 42 57 85 127 179 296 160 361 566 303 323 194 134 79 42 34 37 57 63 58 60 73 82 92 100 105 111 104 133 133 139 120 119 108 78 64 52 52
60 75 95 76 38 22 69 43 115 144 188 215 236 195 643 343 330 196 129 42 33 44 63 65 57 60 71 85 86 52 21 21 55 59 58 98 102 125 117 101 48 74 64 55
61 67 77 39 19 66 48 32 134 126 151 171 305 235 605 380 249 193 45 27 44 60 69 56 30 -5 -6 19 27 46 27 27 16 13 32 42 10 11 17 42 24 28 43 105
70 89 47 38 2 66 80 9 13 86 164 322 243 141 676 350 204 104 68 51 66 66 25 -34 -28 14 60 105 110 100 61 63 40 12 1 -7 -10 -9 -14 -15 10 16 24 42
97 96 73 64 28 29 60 22 59 142 207 298 89 309 546 233 121 32 43 69 48 1 -6 37 65 121 124 109 115 106 120 129 116 53 43 48 25 36 39 35 25 1 -8 -11
70 125 99 122 142 48 73 66 71 82 171 231 311 391 410 223 65 27 44 49 -3 29 58 77 100 131 157 117 138 175 155 128 137 111 114 96 69 62 55 33 30 22 6 16
87 98 118 109 71 138 125 50 88 90 225 225 265 239 467 184 53 61 61 5 30 71 107 152 194 209 171 143 145 120 198 230 264 246 190 120 99 99 104 100 91 68 44 6
85 85 150 111 132 102 125 90 105 67 126 254 307 394 326 95 61 95 37 46 69 118 198 220 233 198 177 152 148 167 224 264 286 285 283 261 221 162 146 105 100 96 59 30
101 110 153 145 159 179 182 133 77 73 230 254 234 183 185 43 61 78 35 65 97 177 231 262 237 208 152 196 229 246 287 299 291 299 310 307 275 238 237 219 148 114 105 85
112 157 127 156 158 157 189 137 112 159 159 211 271 254 61 40 60 69 47 91 111 198 221 238 257 185 198 236 237 257 309 296 300 284 277 299 269 258 242 221 189 135 103 101
103 149 120 123 191 162 173 150 138 158 175 217 205 157 54 59 98 59 64 71 142 218 210 245 242 198 243 242 263 308 335 320 309 304 304 285 222 160 163 194 233 252 162 96
114 162 158 178 158 151 136 146 157 191 182 247 172 114 44 61 129 65 41 75 180 212 255 245 192 227 270 336 378 392 384 373 377 326 248 225 179 207 258 298 297 282 262 141
131 166 161 160 120 133 114 147 152 175 177 211 182 86 10 73 118 58 17 134 155 166 262 238 209 252 336 413 443 411 399 457 381 252 185 153 179 192 161 199 156 118 71 108
132 137 127 176 153 140 151 174 178 144 146 210 223 102 64 68 137 11 92 65 103 148 245 212 231 326 462 501 455 450 498 492 336 239 197 156 173 149 155 160 126 163 156 122
152 151 144 157 158 165 235 209 157 135 114 273 182 75 28 79 166 -2 -3 40 102 147 200 208 271 363 479 497 455 466 467 429 302 271 214 234 208 163 166 164 154 144 155 191
134 151 160 167 189 147 170 246 192 205 155 313 164 61 38 80 174 63 33 53 108 107 154 199 234 326 394 415 431 410 368 269 198 180 161 129 162 174 210 234 221 180 202 258
150 154 145 201 171 162 260 265 194 167 196 237 135 54 50 83 163 270 128 123 122 108 143 160 181 305 350 356 346 343 305 218 165 193 162 153 137 133 149 171 191 168 202 227
168 164 192 193 169 126 241 208 184 164 270 147 101 39 55 110 161 141 93 82 113 96 113 141 176 268 307 300 295 284 240 164 180 170 162 152 149 130 130 130 145 166 229 215
167 197 210 202 152 146 269 209 172 210 160 140 82 45 52 97 135 51 60 65 104 114 140 129 192 268 282 259 266 266 212 197 150 131 127 129 110 127 140 117 133 135 97 96
164 201 203 151 198 221 198 173 163 187 166 117 67 31 53 97 95 38 47 50 106 83 128 122 183 269 256 256 227 233 221 186 145 117 89 91 86 101 95 122 115 142 110 129
194 200 196 186 191 175 169 161 150 135 138 77 58 40 45 68 84 21 8 28 97 84 103 147 197 261 270 256 227 216 209 184 139 114 89 90 97 115 125 154 174 184 181 173
229 254 224 186 177 170 192 157 154 125 94 70 56 39 33 55 70 41 -5 7 88 74 58 132 165 244 250 248 220 221 201 176 135 122 101 95 106 99 109 129 149 165 139 138
222 236 254 234 220 180 182 143 135 122 104 69 37 27 24 35 66 16 -12 -30 52 55 29 126 144 218 255 237 209 209 191 156 133 124 111 110 98 90 100 118 124 67 68 66

GFSCGP_con_3kmhel_237.txt.gz
Helicity
81 108 85 79 87 52 33 25 52 127 281 108 289 325 252 131 159 156 140 84 69 82 60 46 62 79 76 82 89 97 111 108 123 148 141 141 135 130 131 133 103 85 75 77
57 113 74 53 83 22 45 77 89 100 158 218 367 291 194 200 239 171 110 75 100 54 43 49 64 69 65 -3 4 16 26 55 75 111 125 142 162 146 136 145 144 100 91 77
196 84 55 54 58 52 77 73 65 83 82 221 204 297 272 322 187 131 75 98 51 59 75 8 -59 -38 -22 -24 -6 13 13 29 35 43 72 88 108 119 131 151 137 129 106 119
89 65 62 59 56 30 3 78 67 83 91 229 209 237 500 336 289 148 89 51 70 66 -36 -33 -24 -41 4 42 47 23 44 60 67 61 80 64 55 53 70 47 120 109 95 84
84 82 118 88 34 10 56 42 48 81 82 84 359 181 545 403 291 170 47 52 42 -41 -13 -11 -18 19 45 86 86 82 77 71 80 90 74 71 84 82 46 32 27 55 111 106
85 73 78 55 23 29 28 12 148 100 87 104 415 212 620 417 275 87 52 70 -24 -13 -4 12 47 103 137 128 97 75 53 75 79 103 88 44 37 47 50 71 52 19 42 125
112 116 76 82 4 51 47 -20 10 82 161 298 221 95 627 351 261 91 72 39 -5 8 18 95 141 140 151 108 80 45 35 25 31 92 125 108 89 48 41 44 56 60 73 78
79 154 96 64 50 24 15 14 38 121 180 175 33 238 567 239 179 47 54 19 28 11 89 158 162 151 104 87 45 57 86 132 147 162 159 158 155 159 87 62 39 53 82 76
97 200 121 85 79 69 57 51 33 37 75 105 195 385 400 204 50 46 6 -15 59 123 140 186 163 131 84 86 93 107 103 118 137 162 197 216 216 200 153 111 68 61 71 68
94 142 122 114 70 116 79 49 47 39 138 134 182 394 399 135 37 60 0 6 57 132 168 182 172 135 122 135 162 155 144 156 172 193 210 240 262 244 232 200 159 117 77 58
59 78 184 80 130 95 90 96 61 47 156 170 287 390 387 124 55 43 29 20 64 114 198 168 187 135 160 207 233 220 228 245 250 245 240 268 300 275 266 261 226 169 106 63
82 74 136 166 189 125 127 127 75 95 160 157 281 210 367 38 43 2 38 45 45 222 116 192 156 143 237 259 272 270 297 316 302 294 277 289 266 197 211 202 199 219 212 93
67 121 117 233 204 175 164 120 91 120 108 176 365 315 117 29 32 17 51 18 136 118 154 189 151 262 303 295 309 299 339 374 350 282 244 153 120 170 207 225 212 224 254 151
59 92 105 145 170 178 167 137 122 120 171 215 164 250 63 44 55 40 47 15 130 120 181 159 218 322 333 344 359 358 425 407 376 313 205 154 129 141 171 177 150 55 92 129
67 121 137 160 146 163 129 146 152 201 167 238 168 173 67 37 78 10 -12 95 72 133 132 154 232 303 327 350 375 399 383 361 281 206 204 200 169 138 139 145 169 121 81 100
97 142 141 136 145 121 112 163 134 152 204 210 199 123 10 38 69 1 18 31 77 131 108 157 236 275 324 335 342 336 340 268 190 192 159 168 179 168 128 168 167 176 168 107
101 119 117 153 181 119 130 190 201 166 193 223 188 132 41 46 65 -12 -7 6 56 93 87 155 193 261 325 299 274 262 285 230 178 181 169 159 162 143 139 150 206 235 231 148
108 121 138 117 148 113 248 207 192 179 143 258 209 71 41 45 59 57 -38 25 70 41 92 124 169 246 292 274 252 248 222 186 160 166 171 159 146 144 160 127 210 240 221 239
115 130 120 127 133 199 184 210 207 215 99 291 201 118 19 17 65 66 -1 15 41 7 97 81 149 219 248 246 220 219 205 162 130 142 157 158 146 103 71 145 253 192 108 161
126 130 126 167 142 158 271 244 177 182 160 230 144 118 51 34 62 175 71 39 32 0 38 50 144 196 216 240 204 178 181 156 127 146 130 120 112 126 152 143 129 139 53 76
126 119 140 148 143 201 256 232 172 148 232 144 108 62 37 48 77 138 22 1 6 -4 47 51 146 183 202 213 194 173 165 153 148 134 110 111 95 98 99 137 142 130 125 141
110 140 147 171 145 157 254 211 197 201 150 142 88 53 33 40 57 81 15 14 22 37 77 76 150 207 207 194 200 183 157 189 158 119 104 102 105 118 128 108 126 141 163 167
96 157 192 180 185 211 188 184 202 177 138 118 74 45 36 30 48 79 42 -5 24 26 86 81 137 194 205 191 202 221 192 198 130 100 95 100 112 131 129 140 145 155 163 171
168 201 197 191 198 160 183 181 167 148 142 91 71 53 37 31 38 61 35 -5 9 35 80 85 130 183 215 210 212 207 171 200 111 95 88 92 106 140 133 156 169 182 186 195
225 250 201 174 182 181 174 207 152 118 125 98 71 65 50 26 37 75 22 -9 22 10 68 72 110 183 197 200 210 200 154 188 115 98 101 96 101 96 136 128 130 151 138 134
184 170 174 201 241 168 232 199 138 117 111 88 71 53 34 19 35 47 53 -46 -11 19 56 88 122 170 195 200 204 191 173 176 115 99 115 112 109 106 99 104 133 43 51 57

GFSCGP_con_3kmhel_240.txt.gz
Helicity
80 99 70 49 67 21 23 36 94 82 188 141 348 315 255 144 235 124 92 85 104 84 101 94 81 84 94 97 112 98 100 108 101 89 117 135 157 143 131 135 128 129 70 78
80 61 31 15 68 68 63 116 95 80 143 199 278 341 235 258 208 134 119 101 80 69 68 78 87 93 101 115 114 121 99 118 110 112 122 128 147 185 185 160 137 110 112 73
190 82 34 62 77 61 57 79 70 100 111 192 189 366 308 264 207 141 115 72 49 58 80 85 86 117 104 80 89 97 74 54 62 34 96 97 83 134 157 122 159 131 98 92
81 57 80 85 72 30 -10 61 76 64 79 188 185 266 573 514 321 136 72 40 50 79 85 100 96 97 81 71 75 37 24 18 19 30 79 73 129 129 158 132 90 116 104 84
79 79 81 50 33 27 62 81 58 32 82 145 261 242 528 527 333 139 49 11 19 78 84 96 100 85 86 99 5 63 14 41 43 51 64 97 128 154 149 140 118 75 91 101
63 71 63 70 9 82 63 54 63 75 99 198 240 283 575 448 315 81 42 -75 -29 68 75 104 86 72 105 72 89 94 81 85 49 47 64 93 121 134 142 133 138 125 83 97
201 118 90 32 11 27 39 -12 -13 24 107 147 137 332 509 456 174 63 48 -63 -13 75 99 71 41 99 114 105 165 200 135 140 107 107 118 150 187 197 221 195 153 135 134 87
137 177 84 40 52 61 32 46 9 55 118 131 -12 411 487 335 109 3 31 -50 13 35 51 104 77 134 133 193 228 197 191 212 195 183 175 182 196 253 272 259 272 193 136 138
137 174 131 91 68 35 33 63 61 80 27 82 218 450 295 177 16 29 -40 -25 -10 24 102 30 98 182 191 242 231 210 201 225 211 206 209 205 221 228 262 261 274 285 233 137
103 139 135 100 73 85 63 54 53 26 104 107 202 408 377 176 29 14 -43 -1 14 129 65 62 133 117 170 210 252 250 250 269 274 240 211 196 192 177 160 174 249 301 293 203
77 103 174 122 115 104 65 86 42 108 134 215 303 366 379 98 17 -16 -25 19 33 104 23 91 113 142 154 230 259 272 289 292 308 304 276 209 142 116 138 177 180 213 299 242
98 91 134 163 165 101 125 122 97 99 140 135 305 245 181 -102 2 15 -2 45 116 44 36 99 91 147 154 221 263 293 288 300 272 210 179 184 149 112 123 141 162 115 78 195
56 103 99 173 154 152 165 131 78 158 158 162 370 381 27 30 -25 61 9 55 54 4 57 92 66 107 149 197 223 250 247 274 280 192 167 154 144 123 115 125 161 141 83 118
71 68 99 128 190 197 177 158 145 127 155 232 228 284 163 5 17 97 0 41 25 22 91 80 57 91 156 202 223 231 246 261 231 183 171 143 160 137 137 154 179 187 123 111
74 90 102 162 169 152 129 115 174 238 186 289 264 237 173 9 78 99 26 26 -17 74 83 43 61 152 177 188 219 230 233 236 202 180 163 102 144 146 167 157 202 241 121 68
77 98 101 119 177 123 102 131 146 141 223 222 226 208 65 47 95 72 55 -28 -16 87 85 46 94 174 171 180 208 229 211 228 170 176 137 145 180 117 171 105 106 214 212 66
67 88 98 139 159 101 122 149 195 192 187 203 225 240 64 66 81 80 -9 -30 47 67 67 52 111 190 195 191 203 207 219 197 138 143 117 141 140 44 44 62 77 179 212 167
76 103 109 87 140 83 222 190 172 174 173 289 265 160 85 52 75 67 39 -10 47 47 61 47 128 201 194 181 190 201 192 185 132 140 126 136 126 83 93 99 111 168 218 165
82 94 106 121 104 161 183 214 201 222 152 288 259 215 86 30 86 102 101 -5 23 47 93 55 124 181 171 161 189 187 183 162 140 153 137 139 151 146 145 153 135 168 188 193
79 119 117 114 112 111 220 224 187 189 187 243 243 180 114 55 95 171 139 7 19 41 40 58 113 157 149 183 183 172 176 182 167 156 161 137 144 133 162 166 128 157 144 156
111 92 100 104 108 143 232 181 140 188 204 204 197 149 115 122 106 151 126 27 21 39 45 45 104 146 155 177 177 166 183 198 190 140 168 177 138 135 125 146 155 134 142 153
101 124 96 143 134 129 237 167 174 180 172 188 169 134 81 68 76 92 120 31 32 71 45 51 102 156 155 170 181 151 180 221 188 129 142 165 184 145 155 146 153 139 134 133
73 134 137 177 162 249 201 206 206 165 142 157 148 114 74 74 65 87 104 36 39 66 61 44 90 154 158 173 176 157 203 214 155 133 121 123 149 149 146 156 165 160 152 150
123 159 153 148 213 214 188 170 163 152 130 137 136 119 85 77 69 74 112 5 10 53 55 49 79 154 191 195 190 154 176 212 140 127 121 127 139 141 126 150 155 146 146 130
174 225 185 148 223 235 175 181 164 138 111 120 120 119 86 80 69 84 100 47 2 34 43 29 65 134 179 191 202 169 197 203 122 112 114 131 151 147 135 121 114 114 101 77
135 160 185 168 251 219 195 186 145 127 114 105 115 95 86 77 63 67 81 80 -24 34 25 39 71 119 182 181 188 164 195 187 109 108 121 123 156 158 148 141 134 59 45 32

GFSCGP_con_3kmhel_243.txt.gz
Helicity
62 111 80 61 64 66 69 110 125 136 161 240 240 284 208 189 236 163 44 20 50 53 72 59 93 86 85 73 92 95 94 70 76 36 74 75 100 157 136 124 102 124 131 107
79 94 74 66 51 81 106 139 97 79 160 235 308 262 250 209 297 129 60 18 33 -131 -154 -9 47 46 66 74 114 21 65 73 98 95 72 108 110 125 129 110 99 90 68 70
103 78 52 84 70 100 47 113 85 131 131 242 377 236 314 303 319 101 6 -12 -22 -148 -143 -100 -84 -35 62 105 50 115 101 44 103 97 110 130 129 135 120 97 100 100 69 50
115 58 78 86 68 62 51 141 84 87 131 113 191 256 526 461 273 84 -9 -10 -133 -152 -101 -80 -45 -28 30 121 142 146 136 89 65 94 114 99 134 151 153 164 155 126 104 73
72 81 82 35 34 41 114 117 100 108 123 184 145 355 399 396 226 71 23 -6 -137 -120 -85 -61 -16 3 149 144 194 166 134 115 94 136 132 135 125 152 183 211 215 183 124 114
61 42 64 51 40 32 109 61 90 112 106 145 160 247 410 360 177 59 1 -74 -132 -95 -39 38 -24 53 51 57 154 168 178 178 152 161 158 136 121 136 170 196 230 236 215 127
98 62 65 33 39 12 62 24 18 94 61 84 160 333 528 323 102 32 -13 -109 -105 -69 49 -16 -20 31 94 64 124 157 148 199 193 196 211 208 184 156 161 191 241 257 260 222
67 73 68 28 54 62 17 28 23 66 85 66 129 300 498 222 64 -9 0 -122 -89 -47 40 -35 12 74 146 126 194 182 178 207 194 185 189 226 200 164 141 150 164 200 266 295
87 101 90 72 60 50 25 35 82 74 53 88 216 299 445 177 -36 -24 -5 -58 -43 8 -3 -33 34 58 114 109 140 164 160 196 182 169 132 127 139 108 87 108 142 158 163 260
83 97 114 89 61 36 63 46 65 40 106 75 144 308 339 188 3 -32 -9 -23 12 49 -20 -30 50 78 115 102 144 152 128 142 186 192 152 129 123 118 77 99 111 136 125 83
82 114 135 122 96 74 58 46 61 79 105 154 235 268 378 118 -14 -8 56 -34 -12 33 -38 -7 98 114 96 82 147 138 124 143 179 218 164 154 135 106 95 102 128 120 85 62
63 117 140 133 99 85 77 86 94 110 90 165 264 194 249 -32 1 50 57 0 51 -7 104 106 103 108 94 113 127 114 148 176 198 197 153 164 172 75 98 142 164 132 77 77
46 85 113 129 103 89 139 111 101 136 180 147 295 276 134 35 24 65 68 -16 53 -7 18 79 80 87 116 144 137 134 165 180 171 152 139 201 119 82 46 102 186 115 33 72
64 91 127 129 128 148 117 131 131 149 182 224 225 352 271 132 65 76 92 25 0 -13 45 105 78 113 110 157 140 168 183 173 186 129 120 115 86 33 20 80 108 104 35 58
78 101 98 131 159 125 104 117 169 196 174 266 240 255 267 201 109 92 96 -3 20 44 55 97 67 134 146 174 155 177 198 200 175 129 165 147 135 139 95 89 158 147 84 116
47 90 86 106 124 97 101 95 157 159 231 216 222 229 158 108 92 68 98 0 49 45 86 109 108 140 151 168 167 200 231 200 167 161 169 176 146 137 93 107 148 157 158 144
66 95 95 83 107 104 116 125 190 191 197 231 243 279 156 121 101 74 115 8 68 68 89 83 118 159 169 179 168 201 220 191 190 199 178 172 156 134 105 120 151 174 210 246
76 86 95 96 116 133 151 159 200 195 228 289 261 223 170 117 91 60 103 24 78 83 70 82 149 163 147 158 153 198 203 150 187 203 207 151 162 148 169 134 186 210 215 210
59 87 96 124 129 120 137 166 203 223 197 255 264 221 169 93 75 99 93 44 65 83 63 91 132 141 125 132 153 191 187 145 187 195 196 168 163 142 162 172 134 135 173 165
60 90 102 113 132 133 188 189 195 228 167 235 281 243 178 131 72 176 141 70 82 63 65 59 134 123 113 129 133 157 167 145 177 179 175 175 134 138 139 148 133 131 126 139
67 69 103 98 107 93 178 181 172 200 217 224 251 215 174 197 158 152 146 82 46 48 65 58 123 108 107 122 120 142 167 128 178 163 154 144 131 132 153 145 142 133 130 117
78 105 79 123 113 109 191 172 209 201 198 225 217 175 162 106 58 74 104 127 52 35 36 73 142 133 106 105 110 124 146 145 158 154 149 133 148 135 168 145 129 126 110 91
47 91 100 142 117 164 165 166 158 166 178 177 186 166 137 92 58 73 106 133 38 24 45 76 133 129 98 103 105 131 153 153 159 140 145 146 131 135 137 127 118 120 105 90
58 110 103 124 143 189 187 176 166 155 155 131 163 158 125 106 68 77 88 117 15 24 57 92 151 132 114 115 103 115 122 143 124 136 142 142 127 124 135 126 94 91 107 109
81 132 129 121 161 186 148 148 164 135 136 122 130 144 123 91 68 82 82 100 -8 7 41 74 129 123 113 116 101 113 107 110 118 128 134 148 152 146 128 106 84 88 80 82
83 93 110 77 140 147 146 174 153 137 136 113 120 139 116 85 61 74 72 102 24 -3 43 62 106 125 129 107 99 97 118 105 130 115 133 141 149 135 115 102 97 16 22 41